[[{"header":{"parameterUnit":"m.s-1","parameterCategory":1,"la1":30.2991,"la2":30.254,"lo1":-89.0895,"lo2":-89.0444,"dy":0.0017,"dx":0.0017,"nx":28,"ny":28,"refTime":"2024-07-31T09:00:00:Z","depth":0,"parameterNumber":2,"parameterNumberName":"U-component_of_WINDS"},"data":[0,0,0,0,0,0,0,0,0,0,0,0,0,0,0,0,0,0,0,0,0,0,0,0,0,0,0,0,0,0,0,0,0,0,0,0,0,0,0,0,0,0,0,0,0,0,0,0,0,0,0,0,0,0,0,0,0,0,1.2092,1.2092,0,1.2123,1.2123,1.2123,1.2133,1.2133,1.2132,1.2132,1.2162,1.2163,1.2164,0,0,0,0,0,0,0,0,0,0,0,0,0,1.204,1.2041,1.2092,1.2092,1.2092,1.2123,1.2123,1.2124,1.2133,1.2133,1.2132,1.2132,1.2162,1.2163,1.2164,0,0,0,0,0,0,0,0,0,0,0,0,0,1.2066,1.2041,1.2092,1.2101,1.2102,1.2123,1.2123,1.2124,1.2133,1.2133,1.2132,1.2132,1.2162,1.2163,1.2164,1.2178,0,0,1.2169,1.2169,0,0,0,0,0,0,0,0,1.2064,1.2067,1.2099,1.21,1.2101,1.2124,1.2116,1.2142,1.2133,1.2121,1.2132,1.2132,1.215,1.2152,1.2158,1.2179,1.218,1.2169,1.217,1.217,1.2171,0,0,0,0,0,0,0,1.2062,1.2066,1.2104,1.2099,1.2101,1.2103,1.2107,1.2121,1.2136,1.2122,1.2123,1.2126,1.215,1.2157,1.2159,1.2181,1.2169,1.217,1.2171,1.2172,1.2216,1.2216,0,0,0,0,0,0,1.2059,1.2065,1.2103,1.2105,1.2082,1.2104,1.2108,1.2117,1.2136,1.2139,1.2127,1.2127,1.2155,1.2157,1.216,1.2178,1.217,1.2172,1.2172,1.2215,1.2216,1.2216,0,0,0,0,0,0,1.2058,1.2062,1.2102,1.2085,1.209,1.2105,1.2115,1.2117,1.2124,1.214,1.2142,1.2131,1.2154,1.2158,1.2174,1.2179,1.2172,1.2174,1.2215,1.2215,1.2216,1.2212,0,0,0,0,0,0,1.2056,1.2062,1.2067,1.2085,1.2091,1.2115,1.2115,1.2118,1.2127,1.2127,1.2144,1.2146,1.2155,1.2172,1.2175,1.2181,1.2175,1.2215,1.2215,1.2216,1.2212,1.2213,1.2213,0,0,0,0,0,1.2054,1.2064,1.2067,1.2072,1.2098,1.2115,1.2119,1.2128,1.2127,1.2133,1.2143,1.2146,1.2178,1.2173,1.2177,1.2183,1.2214,1.2215,1.2216,1.2212,1.2213,1.2213,0,0,0,0,0,0,1.2045,1.2067,1.207,1.2086,1.2099,1.2117,1.2124,1.2128,1.2141,1.2141,1.2152,1.2155,1.217,1.2178,1.2173,1.2198,1.2196,1.2198,1.2192,1.2193,1.2193,1.2191,1.2176,0,0,0,0,0,1.2046,1.2058,1.2076,1.2088,1.2095,1.2108,1.2116,1.2122,1.2136,1.2141,1.2152,1.2164,1.2177,1.2186,1.2198,1.2214,1.2218,1.222,1.222,1.2221,1.2222,1.2232,1.2233,1.2219,1.2219,1.2218,0,0,1.2045,1.2059,1.2066,1.2087,1.2097,1.211,1.2112,1.2125,1.2135,1.2143,1.2158,1.2167,1.2182,1.2198,1.2205,1.2205,1.2227,1.2222,1.2222,1.2223,1.2232,1.2234,1.2235,1.2219,1.2219,1.2219,0,0,1.2052,1.2063,1.2075,1.2086,1.2102,1.2112,1.2115,1.2132,1.2138,1.2155,1.2161,1.2172,1.2194,1.2205,1.2213,1.2225,1.2229,1.2229,1.2232,1.2241,1.2242,1.2243,1.2248,1.2249,1.223,1.223,1.223,0,1.2049,1.2069,1.208,1.2093,1.2103,1.2112,1.2124,1.2134,1.2153,1.216,1.2159,1.2188,1.2198,1.2217,1.222,1.2226,1.223,1.2227,1.2241,1.2242,1.2243,1.2248,1.225,1.223,1.223,1.223,1.223,0,1.2065,1.2079,1.2087,1.2107,1.2117,1.2129,1.2143,1.2152,1.2158,1.2167,1.2184,1.2197,1.2213,1.2218,1.2224,1.2238,1.2238,1.2239,1.2237,1.2244,1.2249,1.2251,1.223,1.223,1.223,1.223,0,0,1.2065,1.2093,1.2095,1.2105,1.2124,1.2135,1.2149,1.2165,1.2173,1.2186,1.2198,1.2217,1.2219,1.2228,1.2235,1.2244,1.2253,1.2244,1.2245,1.2245,1.227,1.2269,1.2271,1.2256,1.2256,1.2257,1.2269,0,1.2074,1.2099,1.211,1.213,1.2143,1.2153,1.2164,1.2178,1.2187,1.22,1.221,1.2224,1.2225,1.2231,1.2239,1.225,1.2258,1.2249,1.2267,1.2267,1.2262,1.2273,1.2272,1.2283,1.2271,1.2271,1.2272,0,1.2087,1.2102,1.2124,1.2143,1.2149,1.2159,1.2176,1.2188,1.2203,1.221,1.2221,1.2228,1.2243,1.2241,1.2261,1.2255,1.2263,1.227,1.227,1.2272,1.2269,1.2275,1.2286,1.2288,1.2274,1.2274,1.2274,0,1.2086,1.2111,1.2127,1.2135,1.2158,1.2165,1.2175,1.2191,1.22,1.2215,1.2221,1.2237,1.2245,1.2258,1.2269,1.2266,1.2288,1.2287,1.2294,1.2294,1.2297,1.2297,1.231,1.2303,1.2303,1.2303,1.2303,0,1.2094,1.2107,1.2127,1.2137,1.2152,1.2165,1.2179,1.2189,1.2204,1.2216,1.2225,1.2236,1.225,1.2263,1.2272,1.2288,1.2291,1.2297,1.2299,1.2296,1.2295,1.2301,1.23,1.2303,1.2303,1.2303,1.2303,0,1.2094,1.2108,1.2127,1.2148,1.2153,1.2163,1.2181,1.2191,1.2202,1.2217,1.2221,1.2238,1.2254,1.2266,1.2287,1.2293,1.2309,1.2312,1.2304,1.2305,1.2311,1.2311,1.2328,1.2331,1.2322,1.2322,1.2322,0,1.2099,1.2109,1.2131,1.2141,1.2151,1.2165,1.2176,1.2189,1.22,1.2219,1.2227,1.2244,1.2258,1.2283,1.2296,1.2312,1.2315,1.232,1.2317,1.2314,1.2315,1.2314,1.2316,1.232,1.232,1.232,1.232,0,1.2105,1.2112,1.2127,1.2145,1.2157,1.2171,1.2186,1.2193,1.2209,1.222,1.2237,1.2248,1.227,1.2287,1.2304,1.2314,1.232,1.2321,1.2324,1.2321,1.2316,1.2319,1.2305,1.2321,1.2321,1.2321,1.2321,1.2321,1.2108,1.2118,1.2135,1.2152,1.2165,1.2178,1.2189,1.2202,1.2216,1.2236,1.2243,1.226,1.2277,1.2301,1.2311,1.2325,1.2325,1.2329,1.233,1.233,1.233,1.2314,1.2328,1.2328,1.2328,1.2328,1.2328,0,1.2115,1.2127,1.2142,1.2163,1.2176,1.2182,1.2198,1.2209,1.2224,1.224,1.2254,1.2274,1.229,1.2306,1.2323,1.2331,1.2334,1.2335,1.2334,1.2337,1.2329,1.2325,1.2332,1.2332,1.2332,1.2332,1.2332,1.2332,1.212,1.2137,1.2146,1.217,1.2182,1.22,1.2209,1.2222,1.2235,1.2257,1.2271,1.2281,1.2297,1.2315,1.2331,1.2335,1.2341,1.2341,1.2346,1.2338,1.2337,1.2337,1.2333,1.2342,1.2342,1.2353,1.2353,1.2353]},{"header":{"parameterUnit":"m.s-1","parameterCategory":1,"la1":30.2991,"la2":30.254,"lo1":-89.0895,"lo2":-89.0444,"dy":0.0017,"dx":0.0017,"nx":28,"ny":28,"refTime":"2024-07-31T09:00:00:Z","depth":0,"parameterNumber":3,"parameterNumberName":"V-component_of_WINDS"},"data":[0,0,0,0,0,0,0,0,0,0,0,0,0,0,0,0,0,0,0,0,0,0,0,0,0,0,0,0,0,0,0,0,0,0,0,0,0,0,0,0,0,0,0,0,0,0,0,0,0,0,0,0,0,0,0,0,0,0,-1.9562,-1.9563,0,-1.9584,-1.9585,-1.9585,-1.9575,-1.9575,-1.9574,-1.9574,-1.9595,-1.9597,-1.9598,0,0,0,0,0,0,0,0,0,0,0,0,0,-1.9513,-1.9513,-1.9562,-1.9563,-1.9563,-1.9584,-1.9585,-1.9585,-1.9575,-1.9575,-1.9574,-1.9573,-1.9595,-1.9596,-1.9598,0,0,0,0,0,0,0,0,0,0,0,0,0,-1.9534,-1.9514,-1.9562,-1.9561,-1.9561,-1.9584,-1.9585,-1.9585,-1.9575,-1.9575,-1.9574,-1.9573,-1.9595,-1.9596,-1.9598,-1.9624,0,0,-1.9603,-1.9604,0,0,0,0,0,0,0,0,-1.9533,-1.9536,-1.9561,-1.9561,-1.9561,-1.9576,-1.9575,-1.9598,-1.9576,-1.957,-1.9574,-1.9573,-1.959,-1.9592,-1.9598,-1.9625,-1.9626,-1.9603,-1.9604,-1.9605,-1.9605,0,0,0,0,0,0,0,-1.9532,-1.9535,-1.9571,-1.9561,-1.9561,-1.9559,-1.9561,-1.958,-1.9584,-1.957,-1.957,-1.9572,-1.959,-1.9596,-1.9598,-1.9626,-1.9603,-1.9604,-1.9605,-1.9606,-1.968,-1.9681,0,0,0,0,0,0,-1.953,-1.9534,-1.957,-1.9572,-1.9545,-1.9561,-1.9563,-1.9572,-1.9584,-1.9585,-1.9573,-1.9572,-1.9594,-1.9596,-1.9599,-1.9633,-1.9605,-1.9606,-1.9607,-1.9679,-1.968,-1.9682,0,0,0,0,0,0,-1.9529,-1.9533,-1.9569,-1.9553,-1.9557,-1.9562,-1.9573,-1.9573,-1.9579,-1.9586,-1.9587,-1.9579,-1.9593,-1.9596,-1.9619,-1.9633,-1.9607,-1.9608,-1.9678,-1.968,-1.9681,-1.97,0,0,0,0,0,0,-1.9528,-1.9533,-1.9543,-1.9553,-1.9558,-1.9589,-1.9573,-1.9574,-1.9582,-1.9581,-1.9591,-1.9592,-1.9593,-1.9616,-1.962,-1.9635,-1.961,-1.9677,-1.9679,-1.9681,-1.9698,-1.9701,-1.9705,0,0,0,0,0,-1.9526,-1.9546,-1.9543,-1.9548,-1.957,-1.959,-1.9592,-1.9593,-1.9583,-1.9594,-1.9598,-1.9592,-1.9631,-1.9619,-1.9623,-1.9639,-1.9676,-1.9678,-1.968,-1.9696,-1.9701,-1.9705,0,0,0,0,0,0,-1.9536,-1.9547,-1.9544,-1.9568,-1.9578,-1.9588,-1.9601,-1.9597,-1.9609,-1.9608,-1.9607,-1.9609,-1.9633,-1.9638,-1.9624,-1.9666,-1.9652,-1.9655,-1.9663,-1.9667,-1.967,-1.9669,-1.9611,0,0,0,0,0,-1.9542,-1.9557,-1.9565,-1.9586,-1.9591,-1.9595,-1.9603,-1.9603,-1.9613,-1.9617,-1.9623,-1.9633,-1.9648,-1.9657,-1.9671,-1.9698,-1.9702,-1.9711,-1.9715,-1.9717,-1.9721,-1.9738,-1.9743,-1.9689,-1.9689,-1.9689,0,0,-1.9552,-1.956,-1.9569,-1.9588,-1.9596,-1.9612,-1.9599,-1.9615,-1.9628,-1.9619,-1.9642,-1.9647,-1.9658,-1.9684,-1.9695,-1.9688,-1.9736,-1.972,-1.9723,-1.9724,-1.9741,-1.9746,-1.9751,-1.969,-1.969,-1.969,0,0,-1.9581,-1.9587,-1.9607,-1.9615,-1.9627,-1.963,-1.9635,-1.9646,-1.9649,-1.9672,-1.9667,-1.9681,-1.9706,-1.9715,-1.9723,-1.9758,-1.9753,-1.9762,-1.9781,-1.9798,-1.9802,-1.9806,-1.9821,-1.9826,-1.9765,-1.9765,-1.9765,0,-1.9593,-1.9617,-1.9617,-1.9635,-1.9644,-1.9639,-1.9659,-1.9667,-1.9683,-1.969,-1.9682,-1.9715,-1.9722,-1.9751,-1.976,-1.9765,-1.9772,-1.9761,-1.9802,-1.9806,-1.9809,-1.9823,-1.9829,-1.9766,-1.9766,-1.9766,-1.9766,0,-1.9632,-1.9649,-1.9663,-1.968,-1.9691,-1.971,-1.9714,-1.9725,-1.9724,-1.9728,-1.9752,-1.9761,-1.9777,-1.9784,-1.9782,-1.9814,-1.9809,-1.9801,-1.9788,-1.9816,-1.9829,-1.9834,-1.9768,-1.9767,-1.9767,-1.9767,0,0,-1.9667,-1.9685,-1.9691,-1.97,-1.9714,-1.9727,-1.9747,-1.9764,-1.9775,-1.9786,-1.9804,-1.9826,-1.982,-1.9829,-1.9828,-1.9843,-1.9874,-1.9834,-1.9834,-1.9843,-1.9912,-1.9919,-1.9925,-1.987,-1.9871,-1.9872,-1.9912,0,-1.9698,-1.9733,-1.9735,-1.9767,-1.9784,-1.978,-1.9797,-1.9808,-1.9813,-1.9829,-1.9834,-1.9851,-1.984,-1.9846,-1.986,-1.9867,-1.9888,-1.9864,-1.9888,-1.9889,-1.9887,-1.9932,-1.9939,-1.9975,-1.9916,-1.9917,-1.9918,0,-1.9738,-1.9753,-1.9787,-1.9802,-1.9809,-1.9825,-1.9842,-1.9857,-1.987,-1.9873,-1.9884,-1.9882,-1.9904,-1.9889,-1.9919,-1.9903,-1.9913,-1.9918,-1.992,-1.9923,-1.9906,-1.9938,-1.9987,-1.9993,-1.9926,-1.9925,-1.9924,0,-1.9763,-1.9791,-1.9816,-1.9824,-1.9841,-1.9852,-1.986,-1.9872,-1.9883,-1.9899,-1.9906,-1.9923,-1.9933,-1.9947,-1.995,-1.9938,-1.9982,-1.9966,-1.9986,-1.9986,-1.9997,-1.9996,-2.0049,-2.0,-2.0,-2.0,-2.0,0,-1.9799,-1.982,-1.9828,-1.9844,-1.9869,-1.9871,-1.9896,-1.9902,-1.9914,-1.9932,-1.9928,-1.9945,-1.9948,-1.9966,-1.9968,-1.9995,-1.9999,-2.0003,-2.0004,-2.0004,-2.0004,-2.0012,-2.001,-2.0001,-2.0001,-2.0001,-2.0,0,-1.9831,-1.9837,-1.9864,-1.9879,-1.9883,-1.9901,-1.9914,-1.9929,-1.9935,-1.9957,-1.9962,-1.9971,-1.9992,-1.9997,-2.002,-2.0023,-2.0055,-2.0052,-2.0051,-2.0051,-2.0072,-2.0071,-2.0134,-2.0143,-2.0086,-2.0086,-2.0087,0,-1.9854,-1.9871,-1.9888,-1.99,-1.9909,-1.9928,-1.994,-1.9943,-1.9956,-1.9974,-1.9988,-2.0009,-2.0026,-2.0059,-2.0068,-2.0087,-2.0086,-2.0107,-2.0089,-2.009,-2.0089,-2.0089,-2.0092,-2.0111,-2.0111,-2.0112,-2.0112,0,-1.9895,-1.9898,-1.9915,-1.9935,-1.995,-1.9965,-1.998,-1.999,-1.9996,-2.001,-2.0032,-2.0046,-2.0072,-2.0093,-2.0113,-2.0121,-2.0119,-2.0118,-2.0124,-2.0125,-2.0125,-2.0128,-2.0063,-2.0116,-2.0116,-2.0116,-2.0115,-2.0115,-1.9925,-1.9941,-1.9957,-1.9977,-1.9989,-2.0003,-2.002,-2.0028,-2.0046,-2.0069,-2.007,-2.0094,-2.0109,-2.0136,-2.0146,-2.0166,-2.0159,-2.0168,-2.017,-2.0173,-2.0176,-2.0121,-2.0169,-2.0169,-2.0169,-2.0169,-2.0169,0,-1.9968,-1.9978,-1.9997,-2.0019,-2.0036,-2.0032,-2.0049,-2.0063,-2.0085,-2.01,-2.0117,-2.0144,-2.0165,-2.0176,-2.0198,-2.0212,-2.0212,-2.0218,-2.0218,-2.022,-2.0179,-2.0173,-2.0218,-2.0218,-2.0218,-2.0218,-2.0218,-2.0218,-1.9992,-2.002,-2.0025,-2.006,-2.007,-2.0095,-2.0105,-2.0119,-2.0132,-2.0162,-2.018,-2.0187,-2.0201,-2.0224,-2.0245,-2.0247,-2.0256,-2.0264,-2.0266,-2.0228,-2.0223,-2.0218,-2.0212,-2.0265,-2.0265,-2.0306,-2.0307,-2.0307]}]]